GW1738 Weather Reports


Display with metric or nautical units.
time (UTC)temp
F
wind
direction
speed
MPH
gust
MPH
rain 1hr
in
rain 24hr
in
rain mn
in
humidity
%
barometer
mb
20260502160324 54 31 1.0 3.0 0.00 0.00 0.00 60 1014.4
20260502152336 54 253 1.0 3.0 0.00 0.00 0.00 61 1014.5
20260502151322 54 249 2.0 7.0 0.00 0.00 0.00 62 1014.4
20260502150319 54 5 1.0 3.0 0.00 0.00 0.00 64 1014.3
20260502130331 53 120 1.0 3.0 0.00 0.00 0.00 75 1013.9
20260502123317 52 132 0.0 2.0 0.00 0.00 0.00 82 1013.6
20260502122338 51 159 0.0 2.0 0.00 0.00 0.00 86 1013.3
20260502121345 50 248 1.0 3.0 0.00 0.00 0.00 88 1013.2
20260502120326 50 30 0.0 1.0 0.00 0.00 0.00 93 1012.9
20260502115327 49 33 0.0 0.0 0.00 0.00 0.00 94 1013.0
20260502113329 49 33 0.0 0.0 0.00 0.00 0.00 95 1013.1
20260502112349 49 33 0.0 0.0 0.00 0.00 0.00 95 1013.1
20260502111334 48 42 0.0 0.0 0.00 0.00 0.00 95 1013.0
20260502110318 48 42 0.0 0.0 0.00 0.00 0.00 95 1013.2
20260502105334 48 42 0.0 0.0 0.00 0.00 0.00 95 1013.3
20260502104337 48 42 0.0 0.0 0.00 0.00 0.00 95 1013.3
20260502103321 48 42 0.0 0.0 0.00 0.00 0.00 94 1013.1
20260502102323 48 42 0.0 0.0 0.00 0.00 0.00 94 1013.0
20260502101333 48 42 0.0 0.0 0.00 0.00 0.00 94 1012.9
20260502100338 48 42 0.0 0.0 0.00 0.00 0.00 94 1012.8
20260502091338 48 42 0.0 0.0 0.00 0.00 0.00 93 1012.5
20260502090342 48 42 0.0 0.0 0.00 0.00 0.00 93 1012.6
20260502071324 50 42 0.0 0.0 0.00 0.00 0.00 89 1012.1
20260502070359 50 42 0.0 0.0 0.00 0.00 0.00 88 1012.0
20260502065322 50 42 0.0 0.0 0.00 0.00 0.00 88 1012.0
20260502064323 50 42 0.0 1.0 0.00 0.00 0.00 87 1012.1
20260502063325 50 42 0.0 1.0 0.00 0.00 0.00 87 1012.1
20260502062327 51 42 0.0 0.0 0.00 0.00 0.00 86 1012.0
20260502061333 51 42 0.0 0.0 0.00 0.00 0.00 86 1012.1
20260502060337 51 42 0.0 0.0 0.00 0.00 0.00 85 1012.2
20260502055320 51 42 0.0 0.0 0.00 0.00 0.00 84 1012.2
20260502054322 52 42 0.0 0.0 0.00 0.00 0.00 84 1012.4
20260502053325 52 42 0.0 0.0 0.00 0.00 0.00 83 1012.4
20260502052329 52 42 0.0 0.0 0.00 0.00 0.00 82 1012.5
20260502051336 53 42 0.0 0.0 0.00 0.00 0.00 82 1012.6
20260502050355 53 42 0.0 0.0 0.00 0.00 0.00 81 1012.7
20260502045336 53 42 0.0 0.0 0.00 0.00 0.00 81 1012.8
20260502044339 53 42 0.0 0.0 0.00 0.00 0.00 80 1012.8
20260502043341 53 42 0.0 1.0 0.00 0.00 0.00 80 1012.9
20260502042323 54 42 0.0 0.0 0.00 0.00 0.00 79 1013.0
20260502041329 54 42 0.0 2.0 0.00 0.00 0.00 79 1013.0
20260502040330 54 106 0.0 2.0 0.00 0.00 0.00 78 1013.0
20260502035332 54 67 0.0 1.0 0.00 0.00 0.00 78 1013.0
20260502034336 54 62 0.0 2.0 0.00 0.00 0.00 77 1012.9
20260502033318 55 153 0.0 1.0 0.00 0.00 0.00 77 1012.9
20260502032342 55 153 0.0 1.0 0.00 0.00 0.00 76 1012.9
20260502031330 55 153 0.0 1.0 0.00 0.00 0.00 75 1012.8
20260502030316 55 153 0.0 0.0 0.00 0.00 0.00 75 1012.6
20260502025343 55 153 0.0 1.0 0.00 0.00 0.00 74 1012.5
20260502024327 55 153 0.0 2.0 0.00 0.00 0.00 74 1012.5
20260502023349 56 11 0.0 2.0 0.00 0.00 0.00 73 1012.7
20260502022332 56 40 0.0 0.0 0.00 0.00 0.00 73 1012.9
20260502021339 56 40 0.0 0.0 0.00 0.00 0.00 71 1012.7
20260502020322 56 40 0.0 1.0 0.00 0.00 0.00 71 1012.7
20260502015325 56 40 0.0 1.0 0.00 0.00 0.00 71 1012.8
20260502014348 56 40 0.0 1.0 0.00 0.00 0.00 71 1012.7
20260502013349 56 40 0.0 1.0 0.00 0.00 0.00 71 1012.5
20260502012325 56 43 0.0 2.0 0.00 0.00 0.00 70 1012.4
20260502011332 56 174 0.0 0.0 0.00 0.00 0.00 69 1012.2
20260502010335 56 174 0.0 0.0 0.00 0.00 0.00 68 1012.1
20260502005319 57 174 0.0 0.0 0.00 0.00 0.00 67 1012.0
20260502004351 58 174 0.0 0.0 0.00 0.00 0.00 65 1011.8
20260502003335 58 174 0.0 0.0 0.00 0.00 0.00 63 1011.6
20260502002338 59 174 0.0 0.0 0.00 0.00 0.00 61 1011.7
20260502001325 60 174 0.0 0.0 0.00 0.00 0.00 59 1011.6
20260502000328 60 174 0.0 0.0 0.00 0.00 0.00 57 1011.7
20260501235350 61 174 0.0 0.0 0.00 0.00 0.00 55 1011.7
20260501234332 62 174 0.0 0.0 0.00 0.00 0.00 53 1011.7
20260501233331 62 174 0.0 0.0 0.00 0.00 0.00 52 1011.5
20260501232335 63 174 0.0 1.0 0.00 0.00 0.00 50 1011.3
20260501231323 64 174 0.0 1.0 0.00 0.00 0.00 49 1011.5
20260501230346 64 174 0.0 2.0 0.00 0.00 0.00 48 1011.5
20260501225324 64 190 0.0 2.0 0.00 0.00 0.00 46 1011.6
20260501224328 65 163 1.0 5.0 0.00 0.00 0.00 46 1011.7
20260501223331 65 175 0.0 3.0 0.00 0.00 0.00 47 1011.7
20260501222337 65 225 0.0 2.0 0.00 0.00 0.00 49 1011.7
20260501221326 65 229 1.0 2.0 0.00 0.00 0.00 46 1011.8
20260501220331 65 360 0.0 2.0 0.00 0.00 0.00 45 1011.9
20260501215335 65 184 0.0 2.0 0.00 0.00 0.00 45 1011.8
20260501214318 65 242 1.0 2.0 0.00 0.00 0.00 43 1011.8
20260501213320 66 254 1.0 3.0 0.00 0.00 0.00 43 1011.7
20260501212320 66 188 0.0 2.0 0.00 0.00 0.00 46 1011.6
20260501211326 66 132 0.0 3.0 0.00 0.00 0.00 42 1011.7
20260501210350 66 306 1.0 6.0 0.00 0.00 0.00 42 1011.6
20260501205330 66 31 2.0 4.0 0.00 0.00 0.00 44 1011.6
20260501204333 66 184 1.0 5.0 0.00 0.00 0.00 43 1011.8
20260501203317 66 159 0.0 2.0 0.00 0.00 0.00 45 1012.0
20260501202338 66 199 1.0 6.0 0.00 0.00 0.00 42 1012.2
20260501201326 66 126 1.0 7.0 0.00 0.00 0.00 42 1012.4
20260501200330 66 69 2.0 6.0 0.00 0.00 0.00 38 1012.4
20260501195347 66 260 1.0 3.0 0.00 0.00 0.00 40 1012.6
20260501194326 66 263 1.0 4.0 0.00 0.00 0.00 43 1012.7
20260501193349 66 153 1.0 3.0 0.00 0.00 0.00 43 1012.8
20260501192331 65 195 1.0 4.0 0.00 0.00 0.00 41 1013.0
20260501191337 65 120 1.0 5.0 0.00 0.00 0.00 41 1013.1
20260501190316 65 69 2.0 5.0 0.00 0.00 0.00 41 1013.4
20260501185348 65 96 1.0 4.0 0.00 0.00 0.00 40 1013.5
20260501184328 65 91 2.0 3.0 0.00 0.00 0.00 42 1013.9
20260501183329 65 178 1.0 4.0 0.00 0.00 0.00 39 1014.1
20260501182352 66 207 1.0 4.0 0.00 0.00 0.00 43 1014.0
20260501181402 65 202 1.0 6.0 0.00 0.00 0.00 44 1014.2
20260501180324 65 141 1.0 4.0 0.00 0.00 0.00 40 1014.3
20260501175324 65 271 1.0 2.0 0.00 0.00 0.00 40 1014.3
20260501174327 65 192 1.0 3.0 0.00 0.00 0.00 42 1014.5
20260501173330 64 82 1.0 3.0 0.00 0.00 0.00 43 1014.5
20260501172333 64 173 1.0 5.0 0.00 0.00 0.00 49 1014.5
20260501171319 64 172 1.0 7.0 0.00 0.00 0.00 47 1014.7
20260501170321 64 355 2.0 8.0 0.00 0.00 0.00 46 1014.7
20260501165322 63 117 2.0 3.0 0.00 0.00 0.00 48 1014.7
20260501164322 63 341 1.0 3.0 0.00 0.00 0.00 43 1014.7
20260501163326 62 139 2.0 5.0 0.00 0.00 0.00 46 1014.9
20260501162327 62 138 0.0 2.0 0.00 0.00 0.00 47 1015.2
20260501161331 62 40 0.0 3.0 0.00 0.00 0.00 44 1015.5